When you browse on this site, cookies collect data to enhance your experience and personalize the content and advertising you see.
Visit our Privacy Policy to learn more. By continuing to use the site, you agree to this use of cookies and data.
  • In Hungary
  • List of Countries
  • For 7 days
  • Water Temperature
  • Satellite Maps
  • Weather Map
  • News
  • Weather Widgets
  • user-avatar
    Login

    Hourly Weather Palaiseau

    Today, 18 June, Tuesday

    Time Temperature Precipitation Wind Pressure Humidity
    00:00 +18°C° 0 mm 0 mps 754 mmHg 76%
    01:00 +17°C° 0 mm 0 mps 754 mmHg 77%
    02:00 +19°C° 0 mm 1 mps 753 mmHg 79%
    03:00 +19°C° 0 mm 1 mps 753 mmHg 81%
    04:00 +19°C° 0 mm 1 mps 753 mmHg 79%
    05:00 +19°C° 0 mm 2 mps 753 mmHg 78%
    06:00 +19°C° 0 mm 2 mps 753 mmHg 76%
    07:00 +21°C° 0 mm 2 mps 752 mmHg 71%
    08:00 +23°C° 0 mm 2 mps 752 mmHg 66%
    09:00 +25°C° 0 mm 3 mps 752 mmHg 62%
    10:00 +26°C° 0 mm 3 mps 752 mmHg 59%
    11:00 +27°C° 0 mm 3 mps 751 mmHg 56%
    12:00 +28°C° 0 mm 3 mps 751 mmHg 54%
    13:00 +29°C° 0.1 mm 3 mps 751 mmHg 51%
    14:00 +29°C° 0.1 mm 3 mps 750 mmHg 49%
    15:00 +30°C° 0.1 mm 3 mps 750 mmHg 47%
    16:00 +29°C° 0.2 mm 3 mps 749 mmHg 52%
    17:00 +29°C° 0.2 mm 3 mps 749 mmHg 57%
    18:00 +28°C° 0.2 mm 3 mps 749 mmHg 62%
    19:00 +27°C° 0 mm 3 mps 749 mmHg 65%
    20:00 +25°C° 0 mm 3 mps 748 mmHg 69%
    21:00 +24°C° 0 mm 3 mps 748 mmHg 72%
    22:00 +24°C° 0 mm 3 mps 748 mmHg 74%
    23:00 +22°C° 0 mm 3 mps 748 mmHg 76%

    Tomorrow, 19 June, Wednesday

    Time Temperature Precipitation Wind Pressure Humidity
    00:00 +21°C° 0 mm 3 mps 747 mmHg 78%
    01:00 +21°C° 0.4 mm 4 mps 747 mmHg 79%
    02:00 +21°C° 0.4 mm 4 mps 747 mmHg 80%
    03:00 +20°C° 0.4 mm 5 mps 747 mmHg 80%
    04:00 +20°C° 0.1 mm 4 mps 748 mmHg 80%
    05:00 +20°C° 0.1 mm 4 mps 748 mmHg 79%
    06:00 +20°C° 0.1 mm 4 mps 748 mmHg 78%
    07:00 +21°C° 0 mm 4 mps 748 mmHg 74%
    08:00 +22°C° 0 mm 4 mps 749 mmHg 70%
    09:00 +23°C° 0 mm 4 mps 749 mmHg 65%
    10:00 +23°C° 0.4 mm 5 mps 749 mmHg 64%
    11:00 +25°C° 0.4 mm 5 mps 750 mmHg 62%
    12:00 +25°C° 0.4 mm 5 mps 750 mmHg 60%
    13:00 +26°C° 0.3 mm 5 mps 750 mmHg 60%
    14:00 +26°C° 0.3 mm 5 mps 750 mmHg 59%
    15:00 +26°C° 0.3 mm 5 mps 750 mmHg 58%
    16:00 +25°C° 0.4 mm 4 mps 750 mmHg 62%
    17:00 +23°C° 0.4 mm 4 mps 750 mmHg 65%
    18:00 +24°C° 0.4 mm 3 mps 750 mmHg 69%
    19:00 +22°C° 0.2 mm 3 mps 750 mmHg 72%
    20:00 +21°C° 0.2 mm 2 mps 751 mmHg 75%
    21:00 +19°C° 0.2 mm 2 mps 751 mmHg 78%
    22:00 +19°C° 0 mm 2 mps 751 mmHg 81%
    23:00 +18°C° 0 mm 2 mps 751 mmHg 83%

    Day after tomorrow, 20 June, Thursday

    Time Temperature Precipitation Wind Pressure Humidity
    00:00 +17°C° 0 mm 2 mps 751 mmHg 86%
    01:00 +17°C° 0 mm 2 mps 751 mmHg 86%
    02:00 +17°C° 0 mm 3 mps 751 mmHg 87%
    03:00 +16°C° 0 mm 3 mps 751 mmHg 88%
    04:00 +17°C° 0 mm 3 mps 751 mmHg 87%
    05:00 +17°C° 0 mm 3 mps 751 mmHg 86%
    06:00 +17°C° 0 mm 3 mps 751 mmHg 86%
    07:00 +17°C° 0.1 mm 3 mps 752 mmHg 84%
    08:00 +17°C° 0.1 mm 2 mps 752 mmHg 81%
    09:00 +17°C° 0.1 mm 2 mps 752 mmHg 79%
    10:00 +19°C° 0 mm 2 mps 752 mmHg 72%
    11:00 +20°C° 0 mm 2 mps 752 mmHg 65%
    12:00 +22°C° 0 mm 3 mps 753 mmHg 58%
    13:00 +22°C° 0.1 mm 3 mps 753 mmHg 59%
    14:00 +22°C° 0.1 mm 4 mps 753 mmHg 60%
    15:00 +22°C° 0.1 mm 4 mps 753 mmHg 60%
    16:00 +21°C° 0.1 mm 4 mps 753 mmHg 61%
    17:00 +21°C° 0.1 mm 4 mps 753 mmHg 61%
    18:00 +20°C° 0.1 mm 4 mps 754 mmHg 62%
    19:00 +19°C° 0 mm 3 mps 754 mmHg 65%
    20:00 +18°C° 0 mm 3 mps 754 mmHg 68%
    21:00 +16°C° 0 mm 3 mps 755 mmHg 71%
    22:00 +16°C° 0 mm 2 mps 755 mmHg 72%
    23:00 +15°C° 0 mm 2 mps 755 mmHg 73%

    21 June, Friday

    Time Temperature Precipitation Wind Pressure Humidity
    00:00 +14°C° 0 mm 2 mps 756 mmHg 74%
    01:00 +14°C° 0 mm 2 mps 756 mmHg 74%
    02:00 +13°C° 0 mm 2 mps 756 mmHg 75%
    03:00 +13°C° 0 mm 2 mps 756 mmHg 75%
    04:00 +13°C° 0 mm 2 mps 756 mmHg 74%
    05:00 +14°C° 0 mm 2 mps 756 mmHg 73%
    06:00 +14°C° 0 mm 2 mps 756 mmHg 72%
    07:00 +16°C° 0 mm 2 mps 757 mmHg 64%
    08:00 +17°C° 0 mm 2 mps 757 mmHg 57%
    09:00 +19°C° 0 mm 2 mps 757 mmHg 50%
    10:00 +20°C° 0 mm 2 mps 757 mmHg 47%
    11:00 +21°C° 0 mm 2 mps 757 mmHg 43%
    12:00 +23°C° 0 mm 2 mps 757 mmHg 40%
    13:00 +23°C° 0 mm 2 mps 757 mmHg 41%
    14:00 +22°C° 0 mm 3 mps 756 mmHg 43%
    15:00 +22°C° 0 mm 3 mps 756 mmHg 44%
    16:00 +22°C° 0 mm 3 mps 756 mmHg 48%
    17:00 +21°C° 0 mm 3 mps 756 mmHg 53%
    18:00 +20°C° 0 mm 3 mps 756 mmHg 58%
    19:00 +19°C° 0 mm 3 mps 757 mmHg 61%
    20:00 +18°C° 0 mm 3 mps 757 mmHg 65%
    21:00 +17°C° 0 mm 2 mps 757 mmHg 68%
    22:00 +16°C° 0 mm 2 mps 757 mmHg 70%
    23:00 +15°C° 0 mm 2 mps 757 mmHg 72%

    22 June, Saturday

    Time Temperature Precipitation Wind Pressure Humidity
    00:00 +14°C° 0 mm 2 mps 757 mmHg 74%
    01:00 +14°C° 0 mm 2 mps 757 mmHg 74%
    02:00 +14°C° 0 mm 2 mps 757 mmHg 74%
    03:00 +13°C° 0 mm 2 mps 757 mmHg 74%
    04:00 +14°C° 0 mm 2 mps 757 mmHg 72%
    05:00 +14°C° 0 mm 2 mps 757 mmHg 71%
    06:00 +14°C° 0 mm 2 mps 757 mmHg 69%
    07:00 +16°C° 0 mm 2 mps 757 mmHg 64%
    08:00 +17°C° 0 mm 2 mps 757 mmHg 58%
    09:00 +19°C° 0 mm 2 mps 757 mmHg 53%
    10:00 +20°C° 0 mm 2 mps 757 mmHg 49%
    11:00 +21°C° 0 mm 2 mps 757 mmHg 44%
    12:00 +23°C° 0 mm 2 mps 756 mmHg 40%
    13:00 +24°C° 0 mm 2 mps 756 mmHg 41%
    14:00 +24°C° 0 mm 2 mps 756 mmHg 41%
    15:00 +24°C° 0 mm 3 mps 755 mmHg 42%
    16:00 +24°C° 0 mm 3 mps 755 mmHg 46%
    17:00 +22°C° 0 mm 3 mps 755 mmHg 51%
    18:00 +21°C° 0 mm 3 mps 755 mmHg 55%
    19:00 +20°C° 0 mm 3 mps 755 mmHg 58%
    20:00 +19°C° 0 mm 3 mps 755 mmHg 62%
    21:00 +18°C° 0 mm 3 mps 756 mmHg 65%
    22:00 +17°C° 0 mm 2 mps 755 mmHg 68%
    23:00 +16°C° 0 mm 2 mps 755 mmHg 71%

    23 June, Sunday

    Time Temperature Precipitation Wind Pressure Humidity
    00:00 +16°C° 0 mm 2 mps 755 mmHg 74%
    01:00 +16°C° 0 mm 2 mps 755 mmHg 74%
    02:00 +16°C° 0 mm 2 mps 754 mmHg 75%
    03:00 +15°C° 0 mm 2 mps 754 mmHg 75%
    04:00 +16°C° 0 mm 2 mps 754 mmHg 76%
    05:00 +16°C° 0 mm 3 mps 754 mmHg 76%
    06:00 +17°C° 0 mm 3 mps 754 mmHg 77%
    07:00 +18°C° 0 mm 4 mps 754 mmHg 72%
    08:00 +20°C° 0 mm 4 mps 754 mmHg 67%
    09:00 +22°C° 0 mm 4 mps 754 mmHg 62%
    10:00 +23°C° 0 mm 4 mps 753 mmHg 58%
    11:00 +25°C° 0 mm 5 mps 753 mmHg 55%
    12:00 +27°C° 0 mm 5 mps 753 mmHg 51%
    13:00 +26°C° 0 mm 5 mps 753 mmHg 54%
    14:00 +26°C° 0 mm 5 mps 752 mmHg 58%
    15:00 +26°C° 0 mm 4 mps 752 mmHg 61%
    16:00 +26°C° 0 mm 5 mps 752 mmHg 63%
    17:00 +26°C° 0 mm 5 mps 751 mmHg 66%
    18:00 +26°C° 0 mm 5 mps 751 mmHg 69%
    19:00 +25°C° 0 mm 4 mps 751 mmHg 71%
    20:00 +23°C° 0 mm 4 mps 751 mmHg 74%
    21:00 +22°C° 0 mm 4 mps 752 mmHg 77%
    22:00 +22°C° 0.1 mm 3 mps 751 mmHg 79%
    23:00 +22°C° 0.1 mm 3 mps 751 mmHg 80%
    Show more